Location: Botzum
(41.1620°N, 81.5751°W)
Time: 23:38:52
(UTC+00:00)

Daily predictions for brighter satellites

Satellite Brightness Start Highest point End
(mag) Time Altitude Azimuth Time Altitude Azimuth Time Altitude Azimuth
Cosmos 1864 Rocket 4.5 23:25:39 10° S 23:31:48 75° E 23:37:56 10° N
STARLINK-1024 3.7 23:30:27 10° SW 23:34:33 68° SE 23:38:40 10° NE
Cosmos 1802 Rocket 4.4 23:29:02 10° SSW 23:35:17 72° W 23:41:40 10° N
USA 116 4.4 23:31:52 10° NNE 23:35:47 42° E 23:40:09 10° S
STARLINK-1013 4.5 23:32:54 10° W 23:35:56 33° NNW 23:39:00 10° NE
NOSS 2-3 (E) 3.9 23:31:57 10° SSW 23:35:58 46° ESE 23:40:32 10° NE
STARLINK-1027 3.7 23:32:58 10° SW 23:37:13 86° SE 23:41:29 10° NE
Tsikada Rocket 4.1 23:34:17 10° N 23:40:40 68° E 23:47:03 10° SSE
Ariane Rocket 4.2 23:37:51 10° ESE 23:41:37 21° ENE 23:45:23 10° NNE
STARLINK-1032 3.6 23:40:22 10° SW 23:44:30 82° SE 23:48:39 10° NE
Cosmos 2263 4.4 23:41:47 10° S 23:47:22 54° ESE 23:52:59 10° NNE
Cosmos 2016 Rocket 4.4 23:42:18 10° SSW 23:48:20 67° W 23:54:28 10° N
STARLINK-1011 3.6 23:45:19 10° SW 23:49:27 89° SSE 23:53:37 10° NE
CSL-04 Rocket 3.8 23:44:11 10° SSE 23:49:35 57° ENE 23:54:58 10° N
Sich 1 3.8 23:45:38 10° SSW 23:49:49 56° W 23:54:02 10° N
NOSS 2-3 (D) 3.7 23:46:45 10° SSW 23:50:54 60° ESE 23:55:38 10° NE
Lacrosse 5 rocket 4.0 23:50:47 10° NNW 23:51:57 11° N 23:53:08 10° N
USA 229 DEB 4.1 23:46:18 10° SW 23:52:46 64° NW 23:59:34 10° NNE
USA 229 4.1 23:46:24 10° SW 23:52:52 64° NW 23:59:40 10° NNE
Lacrosse 4 Rocket 4.1 23:50:45 10° W 23:53:42 18° NW 23:56:41 10° N
STARLINK-1036 3.7 23:50:19 10° SW 23:54:27 84° NW 23:58:36 10° NE
Lacrosse 5 3.6 23:52:29 10° SE 23:54:45 13° ESE 23:56:19 11° E
